This is the latest recevied weather packets stored in our database for station/object KC5CAM-13. If no packets are shown the sender has not sent any weather packets the latest 10 day(s).
| Time | Temp. | Humidity | Pressure | Rain* | Wind** | Luminosity | Snow |
|---|---|---|---|---|---|---|---|
| 1776878835 | 18.33° C | 95% | 1018.3 hPa | 0 mm | - | 141 W/m² | - |
| 1776878532 | 18.33° C | 95% | 1018.4 hPa | 0 mm | - | 132 W/m² | - |
| 1776878228 | 18.33° C | 95% | 1018.4 hPa | 0 mm | - | 162 W/m² | - |
| 1776877924 | 18.33° C | 95% | 1018.5 hPa | 0 mm | - | 150 W/m² | - |
| 1776877621 | 18.33° C | 95% | 1018.5 hPa | 0 mm | - | 160 W/m² | - |
| 1776877317 | 18.33° C | 95% | 1018.6 hPa | 0 mm | - | 216 W/m² | - |
| 1776877015 | 17.78° C | 95% | 1018.7 hPa | 0 mm | - | 185 W/m² | - |
| 1776876712 | 17.78° C | 96% | 1018.7 hPa | 0 mm | - | 158 W/m² | - |
| 1776876409 | 17.78° C | 96% | 1018.8 hPa | 0 mm | - | 147 W/m² | - |
| 1776876105 | 17.78° C | 96% | 1018.8 hPa | 0 mm | - | 128 W/m² | - |
| 1776875802 | 17.78° C | 96% | 1018.8 hPa | 0 mm | - | 130 W/m² | - |
| 1776875499 | 17.78° C | 96% | 1018.8 hPa | 0 mm | - | 156 W/m² | - |
| 1776875195 | 17.78° C | 96% | 1018.5 hPa | 0 mm | - | 133 W/m² | - |
| 1776874892 | 17.78° C | 96% | 1018.9 hPa | 0 mm | - | 128 W/m² | - |
| 1776874587 | 17.22° C | 96% | 1018.9 hPa | 0 mm | - | 104 W/m² | - |
| 1776874286 | 17.22° C | 96% | 1019.1 hPa | 0 mm | - | 108 W/m² | - |
| 1776873984 | 17.78° C | 96% | 1018.9 hPa | 0 mm | - | 120 W/m² | - |
| 1776873681 | 17.22° C | 97% | 1018.9 hPa | 0 mm | - | 147 W/m² | - |
| 1776873375 | 17.22° C | 97% | 1019.1 hPa | 0 mm | - | 151 W/m² | - |
| 1776873071 | 17.22° C | 97% | 1018.9 hPa | 0 mm | - | 148 W/m² | - |
| 1776872768 | 17.22° C | 97% | 1018.7 hPa | 0 mm | - | 166 W/m² | - |
* Rain latest hour (hover to see other rain measurements)
** Current wind speed in m/s (hover to see current wind gust speed)